Flag for Norway Weather past 2 weeks in Mysen, Norway

Now
60 °F

Low clouds.


Feels Like: 60 °F
Forecast: 57 / 69 °F
Wind: 3 mph from South

Location: Rygge

Current Time: Jul 5, 2015 at 6:57:25 AM

Latest Report: Jul 5, 2015 at 4:00 AM


Visibility: 7 mi

Pressure: 30.08 "Hg

Humidity: 94%

Dew point: 58 °F

Location of MysenLocation

Historic Weather in Mysen — Graph

°F

Mysen temperature yesterday

Maximum temperature yesterday: 69 °F (at 3:00 PM)
Minimum temperature yesterday: 59 °F (at 11:00 PM)
Average temperature yesterday: 62 °F

Past Weeks' High & Low Weather Summary

 TemperatureHumidityPressure
High73 °F (Jun 30, 2:00 PM)99% (Jun 30, 2:00 AM)30.37 "Hg (Jun 30, 2:00 AM)
Low48 °F (Jun 27, 3:00 AM)36% (Jun 20, 6:00 PM)29.67 "Hg (Jun 24, 3:00 AM)
Average61 °F74%29.98 "Hg
* Reported Jun 20 4:00 AM — Jul 5 4:00 AM, Mysen, Weather by CustomWeather, © 2015

Note: Actual official high and low records may vary slightly from our data, if they occured in-between our weather recording intervals... More about our weather records

Advertising

Mysen weather history for previous 24 hours

 ConditionsComfort  
Time TempWeatherWind HumidityBarometerVisibility
4:00 AM
Sun, Jul 5
60 °FLow clouds.3 mph94%30.08 "Hg7 mi
3:00 AM59 °FLow clouds.2 mph95%30.07 "Hg7 mi
2:00 AM58 °FLow clouds.2 mph95%30.08 "Hg8 mi
1:00 AM58 °FLow clouds.2 mph95%30.09 "Hg7 mi
12:00 AM58 °FOvercast.2 mph95%30.08 "Hg9 mi
11:00 PM
Sat, Jul 4
59 °FOvercast.3 mph93%30.10 "Hg15 mi
10:00 PM60 °FPartly sunny.5 mph91%30.10 "Hg17 mi
9:00 PM62 °FPartly sunny.3 mph86%30.09 "Hg22 mi
8:00 PM62 °FSunny.5 mph86%30.10 "Hg22 mi
7:00 PM64 °FSunny.6 mph79%30.12 "Hg19 mi
6:00 PM64 °FSunny.6 mph78%30.13 "Hg19 mi
5:00 PM67 °FSunny.5 mph71%30.14 "Hg19 mi
4:00 PM65 °FSunny.7 mph77%30.15 "Hg22 mi
3:00 PM69 °FSunny.5 mph73%30.15 "Hg22 mi
2:00 PM69 °FOvercast.2 mph74%30.16 "Hg19 mi
1:00 PM64 °FLow clouds.2 mph87%30.18 "Hg18 mi
12:00 PM62 °FLow clouds.3 mph93%30.19 "Hg11 mi
11:00 AM61 °FLow clouds.3 mph95%30.21 "Hg6 mi
10:00 AM61 °FLow clouds.2 mph94%30.20 "Hg7 mi
9:00 AM61 °FLow clouds.No wind98%30.19 "Hg7 mi
8:00 AM60 °FFog.2 mph98%30.18 "Hg2 mi
7:00 AM60 °FDense fog.1 mph99%30.19 "Hg1 mi
6:00 AM60 °FLow clouds.2 mph99%30.20 "Hg1 mi
Weather by CustomWeather, © 2015

See weather overviewHow to use our weather pages